TimeCDT,TemperatureF,Dew PointF,Humidity,Sea Level PressureIn,VisibilityMPH,Wind Direction,Wind SpeedMPH,Gust SpeedMPH,PrecipitationIn,Events,Conditions,WindDirDegrees,DateUTC
12:53 AM,43.0,39.0,86,30.17,10.0,Calm,Calm,-,N/A,,Clear,0,2013-04-05 05:53:00
1:53 AM,43.0,39.0,86,30.17,10.0,Calm,Calm,-,N/A,,Clear,0,2013-04-05 06:53:00
2:53 AM,39.0,37.0,93,30.16,9.0,Calm,Calm,-,N/A,,Clear,0,2013-04-05 07:53:00
3:53 AM,36.0,36.0,100,30.15,8.0,Calm,Calm,-,N/A,,Clear,0,2013-04-05 08:53:00
4:53 AM,36.0,35.1,97,30.17,9.0,Calm,Calm,-,N/A,,Clear,0,2013-04-05 09:53:00
5:53 AM,35.1,35.1,100,30.17,9.0,Calm,Calm,-,N/A,,Clear,0,2013-04-05 10:53:00
6:53 AM,32.0,32.0,100,30.18,5.0,Calm,Calm,-,N/A,,Clear,0,2013-04-05 11:53:00
7:14 AM,32.0,32.0,100,30.19,1.8,Calm,Calm,-,N/A,,Clear,0,2013-04-05 12:14:00
7:25 AM,32.0,32.0,100,30.19,2.0,Calm,Calm,-,N/A,,Clear,0,2013-04-05 12:25:00
7:35 AM,33.8,33.8,100,30.20,4.0,Calm,Calm,-,N/A,,Clear,0,2013-04-05 12:35:00
7:53 AM,35.1,35.1,100,30.21,6.0,Calm,Calm,-,N/A,,Clear,0,2013-04-05 12:53:00
8:53 AM,46.0,42.1,86,30.21,10.0,Calm,Calm,-,N/A,,Clear,0,2013-04-05 13:53:00
9:53 AM,54.0,43.0,66,30.20,10.0,SSW,3.5,-,N/A,,Clear,200,2013-04-05 14:53:00
10:53 AM,61.0,42.1,50,30.20,10.0,SSW,8.1,-,N/A,,Clear,200,2013-04-05 15:53:00
11:53 AM,63.0,41.0,45,30.18,10.0,SSW,11.5,-,N/A,,Clear,210,2013-04-05 16:53:00
12:53 PM,66.0,39.0,37,30.16,10.0,South,12.7,-,N/A,,Clear,180,2013-04-05 17:53:00
1:53 PM,69.1,37.9,32,30.11,10.0,South,11.5,19.6,N/A,,Clear,190,2013-04-05 18:53:00
2:53 PM,69.1,39.9,35,30.07,10.0,South,9.2,-,N/A,,Clear,180,2013-04-05 19:53:00
3:53 PM,71.1,37.9,30,30.04,10.0,SSW,13.8,19.6,N/A,,Clear,200,2013-04-05 20:53:00
4:53 PM,71.1,37.9,30,30.01,10.0,SSW,9.2,18.4,N/A,,Clear,200,2013-04-05 21:53:00
5:53 PM,70.0,41.0,35,29.98,10.0,SSE,16.1,20.7,N/A,,Clear,160,2013-04-05 22:53:00
6:53 PM,66.0,39.9,38,29.97,10.0,SSE,12.7,-,N/A,,Clear,160,2013-04-05 23:53:00
7:53 PM,62.1,42.1,48,29.96,10.0,South,8.1,-,N/A,,Clear,170,2013-04-06 00:53:00
8:53 PM,60.1,44.1,55,29.95,10.0,SSE,9.2,-,N/A,,Clear,160,2013-04-06 01:53:00
9:53 PM,59.0,44.1,58,29.95,10.0,South,9.2,-,N/A,,Clear,170,2013-04-06 02:53:00
10:53 PM,57.9,44.1,60,29.93,10.0,South,6.9,-,N/A,,Clear,170,2013-04-06 03:53:00
11:53 PM,59.0,43.0,55,29.91,10.0,South,9.2,18.4,N/A,,Clear,180,2013-04-06 04:53:00